Spokane, WA
on Tuesday, December 25, 2012

Tuesday
Previous Day Next Day
Daily Summary
 ActualAverageRecord
Temperature
Mean Temperature °F 26°F  
Max Temperature 32°F 32°F 53°F (1980)
Min Temperature 25°F 22°F -6°F (1964)
Degree Days
Heating Degree Days 36 38  
Month to date heating degree days 794 939  
Since 1 July heating degree days 2179 2606  
Cooling Degree Days 0 0  
Month to date cooling degree days 0 0  
Year to date cooling degree days 535 450  
Moisture
Dew Point 28°F   
Average Humidity 93    
Maximum Humidity 100    
Minimum Humidity 85    
Precipitation
Precipitation 0.07 in 0.06 in 0.75 in (1907)
Month to date precipitation 2.51 1.90  
Year to date precipitation 21.25 16.16  
Snow
Snow 0.90 in 0.50 in 5.20 in (1998)
Month to date snowfall 17.0 11.4  
Since 1 July snowfall 22.9 18.9  
Snow Depth 5.00 in   
Wind
Wind Speed 5 mph   
Max Wind Speed 12 mph   
Max Gust Speed 14 mph   
Visibility 3 miles   
Events Fog , Snow   

Key: T is trace of precipitation, MM is missing value
Source: NWS Daily Summary
Time(PST)TemperatureDew PointHumidity Pressure Visibility Wind DirectionWind SpeedGust SpeedPrecipitationEvents Conditions
12:53 AM 28.9°F 28.9°F 100% 30.19 in 0.5 miles SE 4.6 mph - N/A   Overcast
1:53 AM 28.0°F 28.0°F 100% 30.19 in 0.5 miles South 8.1 mph - N/A Fog Light Freezing Fog
2:53 AM 28.9°F 28.9°F 100% 30.17 in 0.5 miles SE 4.6 mph - N/A   Overcast
3:53 AM 28.0°F 28.0°F 100% 30.15 in 0.5 miles Calm Calm - N/A   Overcast
4:19 AM 24.8°F 24.8°F 100% 30.07 in 0.1 miles NE 3.5 mph - N/A Fog Light Freezing Fog
4:53 AM 26.1°F 26.1°F 100% 30.13 in 0.1 miles ENE 4.6 mph - N/A Fog Light Freezing Fog
5:53 AM 27.0°F 27.0°F 100% 30.11 in 0.2 miles ENE 4.6 mph - N/A Fog Light Freezing Fog
6:53 AM 27.0°F 27.0°F 100% 30.08 in 0.5 miles ENE 8.1 mph - N/A Fog Light Freezing Fog
6:55 AM 28.4°F 26.6°F 93% 30.00 in 0.5 miles ENE 6.9 mph - N/A Fog Light Freezing Fog
7:43 AM 26.6°F 26.6°F 100% 29.99 in 0.2 miles ENE 6.9 mph - N/A Fog Light Freezing Fog
7:53 AM 27.0°F 26.1°F 96% 30.06 in 0.2 miles ENE 6.9 mph - N/A Fog Light Freezing Fog
8:25 AM 26.6°F 26.6°F 100% 29.98 in 1.0 miles ENE 8.1 mph - N/A   Mostly Cloudy
8:44 AM 28.4°F 26.6°F 93% 29.97 in 2.0 miles ENE 9.2 mph - N/A   Scattered Clouds
8:53 AM 28.0°F 27.0°F 96% 30.04 in 2.5 miles ENE 9.2 mph - N/A   Scattered Clouds
9:38 AM 28.4°F 26.6°F 93% 29.96 in 3.0 miles ENE 8.1 mph - N/A   Overcast
9:53 AM 28.0°F 27.0°F 96% 30.03 in 6.0 miles ENE 9.2 mph - N/A   Overcast
10:53 AM 28.9°F 28.0°F 96% 30.00 in 10.0 miles East 5.8 mph - N/A Fog Overcast
11:53 AM 30.0°F 28.0°F 92% 29.95 in 10.0 miles ENE 6.9 mph - N/A   Overcast
12:53 PM 30.0°F 27.0°F 88% 29.91 in 10.0 miles East 4.6 mph - N/A   Overcast
1:53 PM 30.9°F 28.0°F 89% 29.89 in 10.0 miles ENE 4.6 mph - N/A   Overcast
2:53 PM 32.0°F 28.0°F 85% 29.89 in 10.0 miles Calm Calm - N/A   Overcast
3:53 PM 30.9°F 27.0°F 85% 29.88 in 10.0 miles Calm Calm - N/A   Overcast
4:53 PM 30.9°F 27.0°F 85% 29.88 in 7.0 miles SSE 3.5 mph - 0.00 in Snow Light Snow
5:30 PM 30.2°F 28.4°F 93% 29.82 in 2.0 miles SSE 4.6 mph - 0.00 in Snow Light Snow
5:53 PM 30.0°F 28.9°F 96% 29.88 in 1.0 miles Calm Calm - 0.01 in Snow Light Snow
6:53 PM 30.0°F 28.9°F 96% 29.87 in 1.0 miles ESE 5.8 mph - 0.02 in Snow Light Snow
7:53 PM 30.0°F 28.9°F 96% 29.86 in 1.0 miles East 6.9 mph - 0.02 in Snow Light Snow
8:53 PM 30.0°F 28.9°F 96% 29.85 in 2.0 miles East 3.5 mph - 0.01 in Snow Light Snow
9:53 PM 30.0°F 28.9°F 96% 29.85 in 2.0 miles ENE 5.8 mph - 0.01 in Snow Light Snow
10:53 PM 30.0°F 28.9°F 96% 29.85 in 2.0 miles ENE 6.9 mph - 0.00 in   Overcast
11:53 PM 30.0°F 28.9°F 96% 29.84 in 2.0 miles ENE 6.9 mph - N/A   Overcast
Moon Phase
Dec. 25 Dec. 28 Jan. 04 Jan. 11 Jan. 18
Sunrise:07:37 AM (PST) Moon Rise:02:17 PM (PST)12/25
Sunset:04:03 PM (PST) Moon Set:05:10 AM (PST)12/25

Copyright © 2014 The Weather Underground, Inc.